Location: Newark
(45.2500°N, 7.5833°E)
Time: 01:09:07
(UTC+00:00)

Tiros 1 despin weight - Pass Details

Date: 03 February 2020
Orbit: 594 x 642 km, 48.2° (Epoch: 19 February)

Event Time Altitude Azimuth Distance (km) Brightness Sun altitude
Rises 12:06:38 0° 290° (WNW) 2,871 ? 27.9°
Reaches altitude 10° 12:08:56 10° 289° (WNW) 1,972 ? 27.9°
Maximum altitude 12:13:28 77° 204° (SSW) 641 ? 27.8°
Drops below altitude 10° 12:18:03 10° 119° (ESE) 1,997 ? 27.7°
Sets 12:20:23 0° 117° (ESE) 2,909 ? 27.6°
